Flag for U.S.A. Weather past 2 weeks in Brockton, Massachusetts, U.S.A.

Now
61 °F

Refreshingly cool.


Feels Like: 61 °F
Forecast: 36 / 62 °F
Wind: 8 mph from Northwest

Location: East Milton


UV Index: 5 (Moderate)

Visibility: N/A


Pressure: 30.22 "Hg

Humidity: 31%

Dew point: 30 °F

Location of BrocktonLocation

Historic Weather in Brockton

°F

Brockton temperature yesterday

Maximum temperature yesterday: 41 °F (at 2:54 PM)
Minimum temperature yesterday: 28 °F (at 4:54 AM)
Average temperature yesterday: 36 °F

Past Weeks' High & Low Weather Summary

 TemperatureHumidityPressure
High72 °F (Apr 14, 12:54 PM)100% (Apr 5, 3:54 AM)30.81 "Hg (Apr 5, 3:54 AM)
Low28 °F (Apr 16, 7:54 AM)20% (Apr 6, 4:54 PM)29.34 "Hg (Apr 8, 4:54 PM)
Average47 °F62%30.06 "Hg
* Reported Apr 4 2:54 PM — Apr 19 2:54 PM, Brockton, Weather by CustomWeather, © 2014

Note: Actual official high and low records may vary slightly from our data, if they occured in-between our weather recording intervals... More about our weather records

Advertising

Historic Weather Conditions — Data for Previous 24 hours

 ConditionsComfort  
Time TempWeatherWind HumidityBarometerVisibility
2:54 PM
Apr 19
61 °FRefreshingly cool.16 mph30%30.20 "HgN/A
1:54 PM60 °FRefreshingly cool.10 mph31%30.21 "HgN/A
12:54 PM59 °FRefreshingly cool.10 mph32%30.22 "HgN/A
11:54 AM57 °FRefreshingly cool.13 mph39%30.21 "HgN/A
10:54 AM54 °FCool.13 mph47%30.22 "HgN/A
9:54 AM52 °FCool.17 mph50%30.21 "HgN/A
8:54 AM47 °FCool.14 mph59%30.20 "HgN/A
7:54 AM41 °FQuite cool.12 mph70%30.20 "HgN/A
6:54 AM37 °FChilly.13 mph79%30.19 "HgN/A
5:54 AM36 °FChilly.12 mph82%30.19 "HgN/A
4:54 AM36 °FChilly.13 mph85%30.20 "HgN/A
3:54 AM36 °FChilly.12 mph89%30.21 "HgN/A
2:54 AM36 °FChilly.12 mph92%30.22 "HgN/A
1:54 AM36 °FChilly.10 mph92%30.23 "HgN/A
12:54 AM35 °FChilly.8 mph92%30.24 "HgN/A
11:54 PM
Apr 18
35 °FChilly.10 mph92%30.27 "HgN/A
10:54 PM35 °FChilly.9 mph92%30.29 "HgN/A
9:54 PM35 °FChilly.7 mph85%30.31 "HgN/A
8:54 PM35 °FChilly.7 mph85%30.32 "HgN/A
7:54 PM36 °FChilly.5 mph82%30.32 "HgN/A
6:54 PM37 °FChilly.7 mph79%30.33 "HgN/A
5:54 PM39 °FChilly.5 mph73%30.37 "HgN/A
4:54 PM40 °FChilly.6 mph70%30.39 "HgN/A
Weather by CustomWeather, © 2014

See weather overview